Year,Month,Day,Hour,Minute,Value (Times are PST for temperature in C)
2010,09,25,00,00,11.60
2010,09,25,00,01,11.60
2010,09,25,00,02,11.60
2010,09,25,00,03,11.70
2010,09,25,00,04,11.70
2010,09,25,00,05,11.80
2010,09,25,00,06,11.80
2010,09,25,00,07,11.80
2010,09,25,00,08,11.90
2010,09,25,00,09,11.90
2010,09,25,00,10,12.00
2010,09,25,00,11,12.00
2010,09,25,00,12,12.00
2010,09,25,00,13,12.00
2010,09,25,00,14,12.00
2010,09,25,00,15,12.10
2010,09,25,00,16,12.10
2010,09,25,00,17,12.10
2010,09,25,00,18,12.10
2010,09,25,00,19,12.10
2010,09,25,00,20,12.10
2010,09,25,00,21,12.10
2010,09,25,00,22,12.20
2010,09,25,00,23,12.20
2010,09,25,00,24,12.20
2010,09,25,00,25,12.20
2010,09,25,00,26,12.30
2010,09,25,00,27,12.30
2010,09,25,00,28,12.30
2010,09,25,00,29,12.30
2010,09,25,00,30,12.30
2010,09,25,00,31,12.30
2010,09,25,00,32,12.30
2010,09,25,00,33,12.30
2010,09,25,00,34,12.30
2010,09,25,00,35,12.30
2010,09,25,00,36,12.30
2010,09,25,00,37,12.30
2010,09,25,00,38,12.30
2010,09,25,00,39,12.40
2010,09,25,00,40,12.40
2010,09,25,00,41,12.40
2010,09,25,00,42,12.40
2010,09,25,00,43,12.40
2010,09,25,00,44,12.40
2010,09,25,00,45,12.40
2010,09,25,00,46,12.40
2010,09,25,00,47,12.50
2010,09,25,00,48,12.50
2010,09,25,00,49,12.50
2010,09,25,00,50,12.50
2010,09,25,00,51,12.50
2010,09,25,00,52,12.50
2010,09,25,00,53,12.50
2010,09,25,00,54,12.50
2010,09,25,00,55,12.50
2010,09,25,00,56,12.50
2010,09,25,00,57,12.50
2010,09,25,00,58,12.50
2010,09,25,00,59,12.50
2010,09,25,01,00,12.50
2010,09,25,01,01,12.50
2010,09,25,01,02,12.50
2010,09,25,01,03,12.50
2010,09,25,01,04,12.50
2010,09,25,01,05,12.50
2010,09,25,01,06,12.50
2010,09,25,01,07,12.50
2010,09,25,01,08,12.50
2010,09,25,01,09,12.40
2010,09,25,01,10,12.40
2010,09,25,01,11,12.40
2010,09,25,01,12,12.40
2010,09,25,01,13,12.40
2010,09,25,01,14,12.40
2010,09,25,01,15,12.30
2010,09,25,01,16,12.30
2010,09,25,01,17,12.30
2010,09,25,01,18,12.30
2010,09,25,01,19,12.30
2010,09,25,01,20,12.30
2010,09,25,01,21,12.30
2010,09,25,01,22,12.30
2010,09,25,01,23,12.20
2010,09,25,01,24,12.20
2010,09,25,01,25,12.10
2010,09,25,01,26,12.10
2010,09,25,01,27,12.10
2010,09,25,01,28,12.10
2010,09,25,01,29,12.00
2010,09,25,01,30,12.00
2010,09,25,01,31,12.00
2010,09,25,01,32,12.00
2010,09,25,01,33,11.90
2010,09,25,01,34,11.90
2010,09,25,01,35,11.90
2010,09,25,01,36,11.90
2010,09,25,01,37,11.80
2010,09,25,01,38,11.80
2010,09,25,01,39,11.80
2010,09,25,01,40,11.80
2010,09,25,01,41,11.80
2010,09,25,01,42,11.80
2010,09,25,01,43,11.80
2010,09,25,01,44,11.80
2010,09,25,01,45,11.80
2010,09,25,01,46,11.80
2010,09,25,01,47,11.80
2010,09,25,01,48,11.80
2010,09,25,01,49,11.80
2010,09,25,01,50,11.80
2010,09,25,01,51,11.80
2010,09,25,01,52,11.80
2010,09,25,01,53,11.80
2010,09,25,01,54,11.80
2010,09,25,01,55,11.80
2010,09,25,01,56,11.80
2010,09,25,01,57,11.70
2010,09,25,01,58,11.80
2010,09,25,01,59,11.80
2010,09,25,02,00,11.80
2010,09,25,02,01,11.80
2010,09,25,02,02,11.80
2010,09,25,02,03,11.80
2010,09,25,02,04,11.80
2010,09,25,02,05,11.80
2010,09,25,02,06,11.80
2010,09,25,02,07,11.80
2010,09,25,02,08,11.80
2010,09,25,02,09,11.80
2010,09,25,02,10,11.80
2010,09,25,02,11,11.80
2010,09,25,02,12,11.80
2010,09,25,02,13,11.80
2010,09,25,02,14,11.80
2010,09,25,02,15,11.80
2010,09,25,02,16,11.80
2010,09,25,02,17,11.80
2010,09,25,02,18,11.70
2010,09,25,02,19,11.70
2010,09,25,02,20,11.70
2010,09,25,02,21,11.70
2010,09,25,02,22,11.70
2010,09,25,02,23,11.70
2010,09,25,02,24,11.70
2010,09,25,02,25,11.60
2010,09,25,02,26,11.60
2010,09,25,02,27,11.60
2010,09,25,02,28,11.60
2010,09,25,02,29,11.60
2010,09,25,02,30,11.60
2010,09,25,02,31,11.60
2010,09,25,02,32,11.60
2010,09,25,02,33,11.60
2010,09,25,02,34,11.60
2010,09,25,02,35,11.60
2010,09,25,02,36,11.40
2010,09,25,02,37,11.40
2010,09,25,02,38,11.40
2010,09,25,02,39,11.40
2010,09,25,02,40,11.40
2010,09,25,02,41,11.40
2010,09,25,02,42,11.40
2010,09,25,02,43,11.40
2010,09,25,02,44,11.40
2010,09,25,02,45,11.40
2010,09,25,02,46,11.30
2010,09,25,02,47,11.30
2010,09,25,02,48,11.30
2010,09,25,02,49,11.30
2010,09,25,02,50,11.30
2010,09,25,02,51,11.20
2010,09,25,02,52,11.20
2010,09,25,02,53,11.20
2010,09,25,02,54,11.10
2010,09,25,02,55,11.10
2010,09,25,02,56,11.10
2010,09,25,02,57,11.10
2010,09,25,02,58,11.10
2010,09,25,02,59,11.10
2010,09,25,03,00,11.10
2010,09,25,03,01,11.10
2010,09,25,03,02,11.10
2010,09,25,03,03,11.10
2010,09,25,03,04,11.00
2010,09,25,03,05,10.90
2010,09,25,03,06,10.90
2010,09,25,03,07,10.90
2010,09,25,03,08,10.90
2010,09,25,03,09,10.90
2010,09,25,03,10,10.90
2010,09,25,03,11,10.80
2010,09,25,03,12,10.80
2010,09,25,03,13,10.80
2010,09,25,03,14,10.80
2010,09,25,03,15,10.90
2010,09,25,03,16,10.90
2010,09,25,03,17,10.90
2010,09,25,03,18,10.90
2010,09,25,03,19,10.90
2010,09,25,03,20,10.80
2010,09,25,03,21,10.80
2010,09,25,03,22,10.80
2010,09,25,03,23,10.80
2010,09,25,03,24,10.70
2010,09,25,03,25,10.70
2010,09,25,03,26,10.70
2010,09,25,03,27,10.60
2010,09,25,03,28,10.60
2010,09,25,03,29,10.60
2010,09,25,03,30,10.60
2010,09,25,03,31,10.60
2010,09,25,03,32,10.60
2010,09,25,03,33,10.60
2010,09,25,03,34,10.60
2010,09,25,03,35,10.60
2010,09,25,03,36,10.60
2010,09,25,03,37,10.60
2010,09,25,03,38,10.60
2010,09,25,03,39,10.60
2010,09,25,03,40,10.60
2010,09,25,03,41,10.60
2010,09,25,03,42,10.50
2010,09,25,03,43,10.40
2010,09,25,03,44,10.40
2010,09,25,03,45,10.40
2010,09,25,03,46,10.40
2010,09,25,03,47,10.40
2010,09,25,03,48,10.40
2010,09,25,03,49,10.40
2010,09,25,03,50,10.40
2010,09,25,03,51,10.40
2010,09,25,03,52,10.30
2010,09,25,03,53,10.30
2010,09,25,03,54,10.30
2010,09,25,03,55,10.30
2010,09,25,03,56,10.30
2010,09,25,03,57,10.40
2010,09,25,03,58,10.40
2010,09,25,03,59,10.50
2010,09,25,04,00,10.60
2010,09,25,04,01,10.60
2010,09,25,04,02,10.60
2010,09,25,04,03,10.60
2010,09,25,04,04,10.60
2010,09,25,04,05,10.60
2010,09,25,04,06,10.60
2010,09,25,04,07,10.60
2010,09,25,04,08,10.60
2010,09,25,04,09,10.50
2010,09,25,04,10,10.40
2010,09,25,04,11,10.50
2010,09,25,04,12,10.60
2010,09,25,04,13,10.60
2010,09,25,04,14,10.60
2010,09,25,04,15,10.60
2010,09,25,04,16,10.50
2010,09,25,04,17,10.40
2010,09,25,04,18,10.40
2010,09,25,04,19,10.40
2010,09,25,04,20,10.40
2010,09,25,04,21,10.40
2010,09,25,04,22,10.40
2010,09,25,04,23,10.30
2010,09,25,04,24,10.30
2010,09,25,04,25,10.30
2010,09,25,04,26,10.20
2010,09,25,04,27,10.20
2010,09,25,04,28,10.20
2010,09,25,04,29,10.20
2010,09,25,04,30,10.20
2010,09,25,04,31,10.10
2010,09,25,04,32,10.10
2010,09,25,04,33,10.10
2010,09,25,04,34,10.10
2010,09,25,04,35,10.10
2010,09,25,04,36,10.10
2010,09,25,04,37,10.00
2010,09,25,04,38,9.90
2010,09,25,04,39,9.90
2010,09,25,04,40,9.90
2010,09,25,04,41,9.90
2010,09,25,04,42,9.90
2010,09,25,04,43,9.90
2010,09,25,04,44,9.90
2010,09,25,04,45,9.80
2010,09,25,04,46,9.90
2010,09,25,04,47,9.90
2010,09,25,04,48,9.90
2010,09,25,04,49,9.90
2010,09,25,04,50,10.10
2010,09,25,04,51,10.10
2010,09,25,04,52,10.10
2010,09,25,04,53,10.20
2010,09,25,04,54,10.20
2010,09,25,04,55,10.20
2010,09,25,04,56,10.20
2010,09,25,04,57,10.10
2010,09,25,04,58,10.20
2010,09,25,04,59,10.30
2010,09,25,05,00,10.30
2010,09,25,05,01,10.30
2010,09,25,05,02,10.30
2010,09,25,05,03,10.20
2010,09,25,05,04,10.20
2010,09,25,05,05,10.20
2010,09,25,05,06,10.30
2010,09,25,05,07,10.30
2010,09,25,05,08,10.40
2010,09,25,05,09,10.50
2010,09,25,05,10,10.60
2010,09,25,05,11,10.60
2010,09,25,05,12,10.60
2010,09,25,05,13,10.60
2010,09,25,05,14,10.50
2010,09,25,05,15,10.60
2010,09,25,05,16,10.60
2010,09,25,05,17,10.60
2010,09,25,05,18,10.60
2010,09,25,05,19,10.60
2010,09,25,05,20,10.70
2010,09,25,05,21,10.70
2010,09,25,05,22,10.80
2010,09,25,05,23,10.70
2010,09,25,05,24,10.70
2010,09,25,05,25,10.70
2010,09,25,05,26,10.70
2010,09,25,05,27,10.80
2010,09,25,05,28,10.90
2010,09,25,05,29,10.90
2010,09,25,05,30,10.90
2010,09,25,05,31,10.90
2010,09,25,05,32,10.90
2010,09,25,05,33,10.90
2010,09,25,05,34,10.90
2010,09,25,05,35,10.90
2010,09,25,05,36,10.90
2010,09,25,05,37,10.90
2010,09,25,05,38,10.90
2010,09,25,05,39,10.90
2010,09,25,05,40,10.90
2010,09,25,05,41,10.90
2010,09,25,05,42,10.90
2010,09,25,05,43,10.90
2010,09,25,05,44,10.90
2010,09,25,05,45,10.90
2010,09,25,05,46,10.90
2010,09,25,05,47,10.90
2010,09,25,05,48,10.90
2010,09,25,05,49,10.80
2010,09,25,05,50,10.80
2010,09,25,05,51,10.80
2010,09,25,05,52,10.80
2010,09,25,05,53,10.70
2010,09,25,05,54,10.70
2010,09,25,05,55,10.60
2010,09,25,05,56,10.60
2010,09,25,05,57,10.50
2010,09,25,05,58,10.40
2010,09,25,05,59,10.40
2010,09,25,06,00,10.50
2010,09,25,06,01,10.60
2010,09,25,06,02,10.60
2010,09,25,06,03,10.60
2010,09,25,06,04,10.70
2010,09,25,06,05,10.70
2010,09,25,06,06,10.70
2010,09,25,06,07,10.80
2010,09,25,06,08,10.90
2010,09,25,06,09,10.90
2010,09,25,06,10,10.90
2010,09,25,06,11,10.90
2010,09,25,06,12,10.90
2010,09,25,06,13,10.90
2010,09,25,06,14,10.90
2010,09,25,06,15,10.90
2010,09,25,06,16,10.90
2010,09,25,06,17,10.90
2010,09,25,06,18,10.90
2010,09,25,06,19,10.90
2010,09,25,06,20,10.90
2010,09,25,06,21,10.90
2010,09,25,06,22,10.90
2010,09,25,06,23,10.90
2010,09,25,06,24,10.90
2010,09,25,06,25,10.80
2010,09,25,06,26,10.70
2010,09,25,06,27,10.60
2010,09,25,06,28,10.50
2010,09,25,06,29,10.40
2010,09,25,06,30,10.40
2010,09,25,06,31,10.40
2010,09,25,06,32,10.40
2010,09,25,06,33,10.40
2010,09,25,06,34,10.40
2010,09,25,06,35,10.40
2010,09,25,06,36,10.40
2010,09,25,06,37,10.40
2010,09,25,06,38,10.40
2010,09,25,06,39,10.40
2010,09,25,06,40,10.50
2010,09,25,06,41,10.60
2010,09,25,06,42,10.60
2010,09,25,06,43,10.50
2010,09,25,06,44,10.40
2010,09,25,06,45,10.50
2010,09,25,06,46,10.60
2010,09,25,06,47,10.60
2010,09,25,06,48,10.60
2010,09,25,06,49,10.60
2010,09,25,06,50,10.60
2010,09,25,06,51,10.60
2010,09,25,06,52,10.60
2010,09,25,06,53,10.60
2010,09,25,06,54,10.60
2010,09,25,06,55,10.60
2010,09,25,06,56,10.60
2010,09,25,06,57,10.60
2010,09,25,06,58,10.60
2010,09,25,06,59,10.60
2010,09,25,07,00,10.40
2010,09,25,07,01,10.40
2010,09,25,07,02,10.40
2010,09,25,07,03,10.40
2010,09,25,07,04,10.30
2010,09,25,07,05,10.30
2010,09,25,07,06,10.20
2010,09,25,07,07,10.20
2010,09,25,07,08,10.20
2010,09,25,07,09,10.10
2010,09,25,07,10,10.10
2010,09,25,07,11,10.20
2010,09,25,07,12,10.20
2010,09,25,07,13,10.20
2010,09,25,07,14,10.20
2010,09,25,07,15,10.20
2010,09,25,07,16,10.30
2010,09,25,07,17,10.40
2010,09,25,07,18,10.40
2010,09,25,07,19,10.50
2010,09,25,07,20,10.60
2010,09,25,07,21,10.60
2010,09,25,07,22,10.60
2010,09,25,07,23,10.60
2010,09,25,07,24,10.70
2010,09,25,07,25,10.70
2010,09,25,07,26,10.80
2010,09,25,07,27,10.70
2010,09,25,07,28,10.80
2010,09,25,07,29,10.80
2010,09,25,07,30,10.80
2010,09,25,07,31,10.80
2010,09,25,07,32,10.80
2010,09,25,07,33,10.90
2010,09,25,07,34,10.90
2010,09,25,07,35,10.90
2010,09,25,07,36,10.90
2010,09,25,07,37,10.90
2010,09,25,07,38,10.90
2010,09,25,07,39,10.90
2010,09,25,07,40,10.90
2010,09,25,07,41,10.90
2010,09,25,07,42,10.90
2010,09,25,07,43,11.00
2010,09,25,07,44,11.10
2010,09,25,07,45,11.10
2010,09,25,07,46,11.10
2010,09,25,07,47,11.10
2010,09,25,07,48,11.10
2010,09,25,07,49,11.10
2010,09,25,07,50,11.10
2010,09,25,07,51,11.10
2010,09,25,07,52,11.10
2010,09,25,07,53,11.10
2010,09,25,07,54,11.10
2010,09,25,07,55,11.10
2010,09,25,07,56,11.10
2010,09,25,07,57,11.00
2010,09,25,07,58,10.90
2010,09,25,07,59,10.90
2010,09,25,08,00,10.90
2010,09,25,08,01,10.90
2010,09,25,08,02,10.90
2010,09,25,08,03,10.90
2010,09,25,08,04,10.90
2010,09,25,08,05,10.90
2010,09,25,08,06,10.90
2010,09,25,08,07,11.00
2010,09,25,08,08,11.10
2010,09,25,08,09,11.10
2010,09,25,08,10,11.10
2010,09,25,08,11,11.20
2010,09,25,08,12,11.20
2010,09,25,08,13,11.30
2010,09,25,08,14,11.30
2010,09,25,08,15,11.40
2010,09,25,08,16,11.40
2010,09,25,08,17,11.40
2010,09,25,08,18,11.40
2010,09,25,08,19,11.40
2010,09,25,08,20,11.50
2010,09,25,08,21,11.60
2010,09,25,08,22,11.60
2010,09,25,08,23,11.60
2010,09,25,08,24,11.60
2010,09,25,08,25,11.60
2010,09,25,08,26,11.60
2010,09,25,08,27,11.60
2010,09,25,08,28,11.50
2010,09,25,08,29,11.40
2010,09,25,08,30,11.40
2010,09,25,08,31,11.30
2010,09,25,08,32,11.30
2010,09,25,08,33,11.20
2010,09,25,08,34,11.20
2010,09,25,08,35,11.30
2010,09,25,08,36,11.30
2010,09,25,08,37,11.30
2010,09,25,08,38,11.30
2010,09,25,08,39,11.30
2010,09,25,08,40,11.30
2010,09,25,08,41,11.20
2010,09,25,08,42,11.20
2010,09,25,08,43,11.20
2010,09,25,08,44,11.20
2010,09,25,08,45,11.30
2010,09,25,08,46,11.30
2010,09,25,08,47,11.30
2010,09,25,08,48,11.40
2010,09,25,08,49,11.40
2010,09,25,08,50,11.40
2010,09,25,08,51,11.50
2010,09,25,08,52,11.60
2010,09,25,08,53,11.60
2010,09,25,08,54,11.60
2010,09,25,08,55,11.60
2010,09,25,08,56,11.70
2010,09,25,08,57,11.80
2010,09,25,08,58,11.90
2010,09,25,08,59,12.00
2010,09,25,09,00,12.10
2010,09,25,09,01,12.20
2010,09,25,09,02,12.30
2010,09,25,09,03,12.40
2010,09,25,09,04,12.50
2010,09,25,09,05,12.50
2010,09,25,09,06,12.60
2010,09,25,09,07,12.60
2010,09,25,09,08,12.70
2010,09,25,09,09,12.70
2010,09,25,09,10,12.80
2010,09,25,09,11,12.80
2010,09,25,09,12,12.80
2010,09,25,09,13,12.90
2010,09,25,09,14,13.00
2010,09,25,09,15,13.00
2010,09,25,09,16,13.10
2010,09,25,09,17,13.10
2010,09,25,09,18,13.10
2010,09,25,09,19,13.20
2010,09,25,09,20,13.20
2010,09,25,09,21,13.30
2010,09,25,09,22,13.30
2010,09,25,09,23,13.40
2010,09,25,09,24,13.50
2010,09,25,09,25,13.60
2010,09,25,09,26,13.60
2010,09,25,09,27,13.60
2010,09,25,09,28,13.60
2010,09,25,09,29,13.60
2010,09,25,09,30,13.70
2010,09,25,09,31,13.70
2010,09,25,09,32,13.70
2010,09,25,09,33,13.70
2010,09,25,09,34,13.70
2010,09,25,09,35,13.70
2010,09,25,09,36,13.70
2010,09,25,09,37,13.70
2010,09,25,09,38,13.70
2010,09,25,09,39,13.70
2010,09,25,09,40,13.80
2010,09,25,09,41,13.90
2010,09,25,09,42,13.80
2010,09,25,09,43,13.80
2010,09,25,09,44,13.90
2010,09,25,09,45,13.90
2010,09,25,09,46,13.90
2010,09,25,09,47,14.00
2010,09,25,09,48,14.20
2010,09,25,09,49,14.30
2010,09,25,09,50,14.40
2010,09,25,09,51,14.40
2010,09,25,09,52,14.40
2010,09,25,09,53,14.40
2010,09,25,09,54,14.40
2010,09,25,09,55,14.30
2010,09,25,09,56,14.20
2010,09,25,09,57,14.20
2010,09,25,09,58,14.30
2010,09,25,09,59,14.20
2010,09,25,10,00,14.20
2010,09,25,10,01,14.20
2010,09,25,10,02,14.20
2010,09,25,10,03,14.20
2010,09,25,10,04,14.10
2010,09,25,10,05,14.10
2010,09,25,10,06,14.10
2010,09,25,10,07,14.20
2010,09,25,10,08,14.30
2010,09,25,10,09,14.30
2010,09,25,10,10,14.20
2010,09,25,10,11,14.20
2010,09,25,10,12,14.20
2010,09,25,10,13,14.20
2010,09,25,10,14,14.10
2010,09,25,10,15,14.00
2010,09,25,10,16,13.90
2010,09,25,10,17,13.90
2010,09,25,10,18,13.90
2010,09,25,10,19,13.90
2010,09,25,10,20,13.90
2010,09,25,10,21,13.90
2010,09,25,10,22,13.90
2010,09,25,10,23,13.90
2010,09,25,10,24,13.90
2010,09,25,10,25,14.00
2010,09,25,10,26,14.10
2010,09,25,10,27,14.20
2010,09,25,10,28,14.30
2010,09,25,10,29,14.30
2010,09,25,10,30,14.30
2010,09,25,10,31,14.30
2010,09,25,10,32,14.30
2010,09,25,10,33,14.30
2010,09,25,10,34,14.40
2010,09,25,10,35,14.40
2010,09,25,10,36,14.40
2010,09,25,10,37,14.50
2010,09,25,10,38,14.60
2010,09,25,10,39,14.70
2010,09,25,10,40,14.80
2010,09,25,10,41,14.80
2010,09,25,10,42,14.80
2010,09,25,10,43,14.80
2010,09,25,10,44,14.90
2010,09,25,10,45,15.00
2010,09,25,10,46,15.10
2010,09,25,10,47,15.20
2010,09,25,10,48,15.30
2010,09,25,10,49,15.30
2010,09,25,10,50,15.30
2010,09,25,10,51,15.30
2010,09,25,10,52,15.30
2010,09,25,10,53,15.40
2010,09,25,10,54,15.40
2010,09,25,10,55,15.40
2010,09,25,10,56,15.50
2010,09,25,10,57,15.50
2010,09,25,10,58,15.50
2010,09,25,10,59,15.40
2010,09,25,11,00,15.40
2010,09,25,11,01,15.40
2010,09,25,11,02,15.40
2010,09,25,11,03,15.40
2010,09,25,11,04,15.50
2010,09,25,11,05,15.50
2010,09,25,11,06,15.60
2010,09,25,11,07,15.60
2010,09,25,11,08,15.60
2010,09,25,11,09,15.70
2010,09,25,11,10,15.80
2010,09,25,11,11,15.70
2010,09,25,11,12,15.60
2010,09,25,11,13,15.50
2010,09,25,11,14,15.50
2010,09,25,11,15,15.60
2010,09,25,11,16,15.60
2010,09,25,11,17,15.50
2010,09,25,11,18,15.50
2010,09,25,11,19,15.40
2010,09,25,11,20,15.30
2010,09,25,11,21,15.30
2010,09,25,11,22,15.30
2010,09,25,11,23,15.30
2010,09,25,11,24,15.30
2010,09,25,11,25,15.40
2010,09,25,11,26,15.50
2010,09,25,11,27,15.50
2010,09,25,11,28,15.50
2010,09,25,11,29,15.50
2010,09,25,11,30,15.50
2010,09,25,11,31,15.50
2010,09,25,11,32,15.60
2010,09,25,11,33,15.60
2010,09,25,11,34,15.70
2010,09,25,11,35,15.80
2010,09,25,11,36,15.90
2010,09,25,11,37,16.10
2010,09,25,11,38,16.20
2010,09,25,11,39,16.20
2010,09,25,11,40,16.30
2010,09,25,11,41,16.30
2010,09,25,11,42,16.40
2010,09,25,11,43,16.40
2010,09,25,11,44,16.40
2010,09,25,11,45,16.50
2010,09,25,11,46,16.60
2010,09,25,11,47,16.70
2010,09,25,11,48,16.80
2010,09,25,11,49,16.90
2010,09,25,11,50,17.00
2010,09,25,11,51,17.10
2010,09,25,11,52,17.20
2010,09,25,11,53,17.20
2010,09,25,11,54,17.30
2010,09,25,11,55,17.30
2010,09,25,11,56,17.40
2010,09,25,11,57,17.40
2010,09,25,11,58,17.50
2010,09,25,11,59,17.50
2010,09,25,12,00,17.40
2010,09,25,12,01,17.30
2010,09,25,12,02,17.30
2010,09,25,12,03,17.30
2010,09,25,12,04,17.30
2010,09,25,12,05,17.30
2010,09,25,12,06,17.20
2010,09,25,12,07,17.20
2010,09,25,12,08,17.20
2010,09,25,12,09,17.20
2010,09,25,12,10,17.20
2010,09,25,12,11,17.20
2010,09,25,12,12,17.20
2010,09,25,12,13,17.20
2010,09,25,12,14,17.20
2010,09,25,12,15,17.20
2010,09,25,12,16,17.30
2010,09,25,12,17,17.30
2010,09,25,12,18,17.30
2010,09,25,12,19,17.30
2010,09,25,12,20,17.30
2010,09,25,12,21,17.30
2010,09,25,12,22,17.30
2010,09,25,12,23,17.20
2010,09,25,12,24,17.20
2010,09,25,12,25,17.20
2010,09,25,12,26,17.10
2010,09,25,12,27,17.10
2010,09,25,12,28,17.10
2010,09,25,12,29,17.10
2010,09,25,12,30,17.10
2010,09,25,12,31,17.10
2010,09,25,12,32,17.30
2010,09,25,12,33,17.30
2010,09,25,12,34,17.30
2010,09,25,12,35,17.30
2010,09,25,12,36,17.40
2010,09,25,12,37,17.50
2010,09,25,12,38,17.60
2010,09,25,12,39,17.70
2010,09,25,12,40,17.80
2010,09,25,12,41,17.80
2010,09,25,12,42,17.90
2010,09,25,12,43,17.80
2010,09,25,12,44,17.80
2010,09,25,12,45,17.70
2010,09,25,12,46,17.80
2010,09,25,12,47,17.80
2010,09,25,12,48,17.80
2010,09,25,12,49,17.90
2010,09,25,12,50,17.90
2010,09,25,12,51,17.90
2010,09,25,12,52,17.90
2010,09,25,12,53,17.90
2010,09,25,12,54,18.10
2010,09,25,12,55,18.20
2010,09,25,12,56,18.10
2010,09,25,12,57,18.10
2010,09,25,12,58,18.20
2010,09,25,12,59,18.20
2010,09,25,13,00,18.20
2010,09,25,13,01,18.20
2010,09,25,13,02,18.10
2010,09,25,13,03,18.10
2010,09,25,13,04,18.20
2010,09,25,13,05,18.20
2010,09,25,13,06,18.20
2010,09,25,13,07,18.30
2010,09,25,13,08,18.30
2010,09,25,13,09,18.30
2010,09,25,13,10,18.30
2010,09,25,13,11,18.30
2010,09,25,13,12,18.30
2010,09,25,13,13,18.30
2010,09,25,13,14,18.30
2010,09,25,13,15,18.30
2010,09,25,13,16,18.30
2010,09,25,13,17,18.30
2010,09,25,13,18,18.30
2010,09,25,13,19,18.30
2010,09,25,13,20,18.40
2010,09,25,13,21,18.40
2010,09,25,13,22,18.30
2010,09,25,13,23,18.30
2010,09,25,13,24,18.20
2010,09,25,13,25,18.20
2010,09,25,13,26,18.40
2010,09,25,13,27,18.50
2010,09,25,13,28,18.60
2010,09,25,13,29,18.60
2010,09,25,13,30,18.60
2010,09,25,13,31,18.60
2010,09,25,13,32,18.70
2010,09,25,13,33,18.90
2010,09,25,13,34,18.90
2010,09,25,13,35,18.90
2010,09,25,13,36,19.00
2010,09,25,13,37,19.10
2010,09,25,13,38,19.10
2010,09,25,13,39,19.10
2010,09,25,13,40,19.10
2010,09,25,13,41,19.10
2010,09,25,13,42,19.10
2010,09,25,13,43,19.10
2010,09,25,13,44,19.20
2010,09,25,13,45,19.30
2010,09,25,13,46,19.50
2010,09,25,13,47,19.60
2010,09,25,13,48,19.70
2010,09,25,13,49,19.80
2010,09,25,13,50,19.80
2010,09,25,13,51,19.80
2010,09,25,13,52,19.70
2010,09,25,13,53,19.70
2010,09,25,13,54,19.70
2010,09,25,13,55,19.70
2010,09,25,13,56,19.60
2010,09,25,13,57,19.60
2010,09,25,13,58,19.60
2010,09,25,13,59,19.60
2010,09,25,14,00,19.60
2010,09,25,14,01,19.60
2010,09,25,14,02,19.50
2010,09,25,14,03,19.50
2010,09,25,14,04,19.60
2010,09,25,14,05,19.60
2010,09,25,14,06,19.60
2010,09,25,14,07,19.70
2010,09,25,14,08,19.90
2010,09,25,14,09,19.90
2010,09,25,14,10,19.90
2010,09,25,14,11,20.00
2010,09,25,14,12,20.10
2010,09,25,14,13,20.20
2010,09,25,14,14,20.30
2010,09,25,14,15,20.50
2010,09,25,14,16,20.60
2010,09,25,14,17,20.80
2010,09,25,14,18,20.90
2010,09,25,14,19,21.00
2010,09,25,14,20,21.10
2010,09,25,14,21,21.20
2010,09,25,14,22,21.30
2010,09,25,14,23,21.30
2010,09,25,14,24,21.30
2010,09,25,14,25,21.40
2010,09,25,14,26,21.40
2010,09,25,14,27,21.40
2010,09,25,14,28,21.50
2010,09,25,14,29,21.60
2010,09,25,14,30,21.60
2010,09,25,14,31,21.60
2010,09,25,14,32,21.70
2010,09,25,14,33,21.70
2010,09,25,14,34,21.80
2010,09,25,14,35,21.90
2010,09,25,14,36,22.00
2010,09,25,14,37,22.10
2010,09,25,14,38,22.20
2010,09,25,14,39,22.20
2010,09,25,14,40,22.40
2010,09,25,14,41,22.40
2010,09,25,14,42,22.50
2010,09,25,14,43,22.50
2010,09,25,14,44,22.40
2010,09,25,14,45,22.40
2010,09,25,14,46,22.30
2010,09,25,14,47,22.20
2010,09,25,14,48,21.90
2010,09,25,14,49,21.60
2010,09,25,14,50,21.50
2010,09,25,14,51,21.30
2010,09,25,14,52,21.20
2010,09,25,14,53,21.10
2010,09,25,14,54,21.00
2010,09,25,14,55,21.00
2010,09,25,14,56,20.90
2010,09,25,14,57,20.90
2010,09,25,14,58,20.80
2010,09,25,14,59,20.70
2010,09,25,15,00,20.70
2010,09,25,15,01,20.50
2010,09,25,15,02,20.50
2010,09,25,15,03,20.40
2010,09,25,15,04,20.20
2010,09,25,15,05,20.20
2010,09,25,15,06,20.00
2010,09,25,15,07,19.90
2010,09,25,15,08,19.90
2010,09,25,15,09,19.90
2010,09,25,15,10,19.90
2010,09,25,15,11,19.90
2010,09,25,15,12,20.00
2010,09,25,15,13,20.10
2010,09,25,15,14,20.20
2010,09,25,15,15,20.20
2010,09,25,15,16,20.00
2010,09,25,15,17,19.90
2010,09,25,15,18,19.90
2010,09,25,15,19,19.90
2010,09,25,15,20,19.80
2010,09,25,15,21,19.80
2010,09,25,15,22,19.80
2010,09,25,15,23,19.80
2010,09,25,15,24,19.90
2010,09,25,15,25,20.00
2010,09,25,15,26,20.20
2010,09,25,15,27,20.20
2010,09,25,15,28,20.20
2010,09,25,15,29,20.20
2010,09,25,15,30,20.40
2010,09,25,15,31,20.50
2010,09,25,15,32,20.70
2010,09,25,15,33,20.80
2010,09,25,15,34,20.90
2010,09,25,15,35,21.00
2010,09,25,15,36,21.20
2010,09,25,15,37,21.30
2010,09,25,15,38,21.40
2010,09,25,15,39,21.40
2010,09,25,15,40,21.40
2010,09,25,15,41,21.40
2010,09,25,15,42,21.40
2010,09,25,15,43,21.30
2010,09,25,15,44,21.30
2010,09,25,15,45,21.30
2010,09,25,15,46,21.20
2010,09,25,15,47,21.00
2010,09,25,15,48,20.90
2010,09,25,15,49,20.90
2010,09,25,15,50,20.90
2010,09,25,15,51,21.00
2010,09,25,15,52,21.00
2010,09,25,15,53,21.10
2010,09,25,15,54,21.20
2010,09,25,15,55,21.10
2010,09,25,15,56,21.10
2010,09,25,15,57,21.10
2010,09,25,15,58,21.10
2010,09,25,15,59,21.00
2010,09,25,16,00,20.90
2010,09,25,16,01,20.80
2010,09,25,16,02,20.70
2010,09,25,16,03,20.70
2010,09,25,16,04,20.60
2010,09,25,16,05,20.70
2010,09,25,16,06,20.70
2010,09,25,16,07,20.70
2010,09,25,16,08,20.80
2010,09,25,16,09,20.90
2010,09,25,16,10,21.00
2010,09,25,16,11,21.10
2010,09,25,16,12,21.20
2010,09,25,16,13,21.30
2010,09,25,16,14,21.30
2010,09,25,16,15,21.30
2010,09,25,16,16,21.30
2010,09,25,16,17,21.40
2010,09,25,16,18,21.60
2010,09,25,16,19,21.70
2010,09,25,16,20,21.90
2010,09,25,16,21,22.00
2010,09,25,16,22,22.20
2010,09,25,16,23,22.30
2010,09,25,16,24,22.40
2010,09,25,16,25,22.50
2010,09,25,16,26,22.60
2010,09,25,16,27,22.60
2010,09,25,16,28,22.70
2010,09,25,16,29,22.70
2010,09,25,16,30,22.80
2010,09,25,16,31,22.70
2010,09,25,16,32,22.70
2010,09,25,16,33,22.60
2010,09,25,16,34,22.50
2010,09,25,16,35,22.20
2010,09,25,16,36,22.00
2010,09,25,16,37,21.80
2010,09,25,16,38,21.60
2010,09,25,16,39,21.50
2010,09,25,16,40,21.40
2010,09,25,16,41,21.30
2010,09,25,16,42,21.10
2010,09,25,16,43,21.00
2010,09,25,16,44,20.90
2010,09,25,16,45,20.80
2010,09,25,16,46,20.80
2010,09,25,16,47,20.80
2010,09,25,16,48,20.90
2010,09,25,16,49,20.90
2010,09,25,16,50,20.80
2010,09,25,16,51,20.80
2010,09,25,16,52,20.80
2010,09,25,16,53,20.70
2010,09,25,16,54,20.70
2010,09,25,16,55,20.60
2010,09,25,16,56,20.60
2010,09,25,16,57,20.50
2010,09,25,16,58,20.40
2010,09,25,16,59,20.40
2010,09,25,17,00,20.30
2010,09,25,17,01,20.30
2010,09,25,17,02,20.20
2010,09,25,17,03,20.20
2010,09,25,17,04,20.20
2010,09,25,17,05,20.20
2010,09,25,17,06,20.10
2010,09,25,17,07,20.10
2010,09,25,17,08,20.10
2010,09,25,17,09,20.00
2010,09,25,17,10,19.90
2010,09,25,17,11,19.80
2010,09,25,17,12,19.60
2010,09,25,17,13,19.60
2010,09,25,17,14,19.50
2010,09,25,17,15,19.40
2010,09,25,17,16,19.40
2010,09,25,17,17,19.50
2010,09,25,17,18,19.50
2010,09,25,17,19,19.60